Location: Ash Shall?l al Awwal
(24.0167°N, 32.8667°E)
Time: 04:49:05
(UTC+00:00)

COSMOS 2428 - Pass Details

Date: 02 March 2021
Orbit: 846 x 857 km, 70.9° (Epoch: 12 April)

Event Time Altitude Azimuth Distance (km) Brightness Sun altitude
Rises 17:40:14 0° 200° (SSW) 3,390 6.0 -25.5°
Reaches altitude 10° 17:42:41 10° 202° (SSW) 2,457 5.3 -26.1°
Maximum altitude 17:48:19 78° 288° (WNW) 864 2.7 -27.4°
Enters shadow 17:50:27 40° 8° (N) 1,232 3.4 -27.9°
